Wind_Speed
5 5 2 1 2 5 7 7 8 8 9 9 9 9 10 9 9 8 8 7 7 7 7 8 9 8 10 11 11 11 10 9 9 9 9 9 9 8 8 8 8 7 7
5 5 2 3 4 6 7 8 8 7 7 7 8 9 10 11 10 9 9 9 10 12 13 14 14 13 12 12 13 12 11 10 12 11 11 10 10 9 8 8 8 7 7
5 5 3 4 6 6 7 7 5 6 7 8 9 9 10 10 11 11 11 12 12 13 13 14 15 15 16 17 16 15 13 12 12 13 14 14 10 11 9 9 9 8 7
4 3 3 5 6 6 6 3 5 6 7 8 9 10 11 11 12 12 13 14 15 16 18 18 18 18 18 18 17 17 16 15 15 15 15 14 16 12 11 11 11 10 9
2 3 3 5 6 7 4 4 5 7 8 9 10 11 12 12 13 13 15 15 16 17 18 18 18 19 19 19 19 18 18 16 16 17 17 17 15 14 14 14 14 13 13
2 3 4 5 6 5 4 5 6 8 9 10 11 12 12 14 15 15 16 17 18 18 19 19 18 18 18 18 18 18 18 17 17 18 18 19 19 16 17 16 16 14 15
3 3 4 5 5 3 5 6 7 9 10 11 12 13 14 15 16 17 17 18 19 19 20 19 19 18 18 17 17 16 16 16 16 17 19 20 19 17 18 18 17 16 16
4 4 5 6 5 5 6 8 9 10 11 12 13 14 15 17 18 19 20 21 21 21 21 20 19 18 17 17 16 16 17 17 18 18 18 19 18 16 17 18 17 18 17
5 5 6 6 6 6 7 8 10 11 11 13 14 15 17 19 20 21 22 21 22 22 20 19 18 18 17 17 16 17 17 18 19 18 20 18 17 17 17 16 17 18 18
7 7 7 7 7 7 9 9 11 12 13 14 15 16 18 20 20 19 19 20 21 20 19 17 17 17 17 16 16 17 16 15 15 16 17 17 17 17 16 15 15 17 17
7 8 8 8 8 8 9 11 12 13 14 15 16 18 19 18 17 18 19 20 20 18 16 16 16 16 17 16 17 16 16 16 15 16 14 13 15 15 14 14 14 15 15
8 9 10 10 10 10 11 13 14 15 14 15 17 19 18 18 18 19 19 19 19 17 17 16 16 17 16 16 15 16 16 16 17 17 14 15 16 16 16 15 15 16 17
9 10 10 11 12 11 13 15 16 15 15 16 19 19 18 18 18 18 18 18 19 18 17 16 15 16 16 15 15 15 16 16 17 14 15 15 16 17 16 17 17 18 19
11 11 11 12 13 13 15 17 17 16 16 18 20 19 18 18 18 18 19 19 19 21 20 19 17 16 17 16 14 12 12 13 15 14 15 16 17 17 16 17 17 19 19
12 11 12 13 14 15 17 17 17 17 18 19 21 20 19 19 19 20 21 22 21 21 22 21 19 18 17 17 15 14 13 13 15 16 15 18 18 18 17 18 18 19 19
12 12 13 14 15 16 18 17 17 18 20 21 22 20 20 21 22 23 24 24 23 23 23 23 21 20 18 17 16 16 16 15 17 19 17 18 19 19 18 18 19 19 20
14 14 15 15 17 18 19 19 19 20 21 22 21 21 22 23 25 25 25 26 26 25 24 24 23 23 20 19 18 18 17 18 18 19 20 18 19 20 20 20 20 20 20
16 16 16 17 18 19 19 20 21 22 23 23 21 22 24 25 27 27 27 26 26 24 23 22 22 23 23 21 19 18 18 18 19 20 20 21 21 19 21 21 21 21 21
18 17 18 19 20 21 21 22 23 24 24 23 23 24 25 27 28 28 26 25 24 23 21 21 20 20 22 21 19 18 19 19 20 21 21 21 21 21 19 20 21 21 21
19 20 19 21 21 22 23 24 24 25 24 24 24 26 27 28 27 26 25 24 23 22 21 20 18 18 18 19 19 19 18 18 19 19 19 19 19 19 19 19 19 20 21
21 21 22 23 24 24 24 25 25 24 24 24 26 27 27 26 26 25 25 24 23 22 22 21 20 18 17 19 18 19 19 18 19 19 19 20 19 19 19 19 20 20 20
23 23 25 25 25 26 26 26 25 25 25 26 27 26 25 25 24 25 25 25 24 23 22 21 20 19 19 17 19 20 20 21 18 18 19 20 21 20 20 20 20 20 21
24 25 26 27 27 26 26 25 24 24 26 26 26 26 26 26 27 26 26 24 24 23 22 21 20 20 18 19 18 21 23 23 22 20 20 20 21 22 22 21 21 22 22
26 27 28 28 27 26 24 24 24 24 24 26 27 28 29 28 26 26 25 25 24 23 21 21 20 20 20 20 20 21 24 27 27 25 23 24 23 21 23 23 24 25 24
27 27 27 26 25 24 23 23 23 24 26 27 28 29 29 29 27 26 25 25 24 23 22 21 21 21 22 22 24 24 25 26 28 30 26 23 26 28 25 23 22 25 23
26 25 24 24 23 22 22 23 24 25 26 27 29 29 29 28 27 26 25 24 24 23 23 23 22 23 24 24 24 24 25 27 28 32 33 28 29 25 26 24 22 21 22
Wind_Direction
200 193 164 268 317 314 331 339 340 335 334 334 337 341 341 341 341 336 326 331 343 325 317 310 305 307 310 304 301 301 303 304 302 301 304 310 316 323 328 328 338 340 346
193 188 228 315 319 326 332 337 340 342 352 354 351 349 347 343 340 334 324 314 305 302 309 307 306 302 294 292 291 288 290 295 296 296 296 297 297 295 303 310 318 319 323
193 202 266 321 327 329 330 337 353 1 356 351 347 347 343 337 334 330 324 318 313 309 306 305 303 302 300 299 298 298 295 284 284 286 288 290 281 287 288 289 292 298 299
207 229 293 320 322 323 328 352 358 353 346 343 343 341 339 334 330 326 322 319 317 315 314 312 308 304 300 297 296 296 294 289 286 284 281 277 280 282 287 280 278 280 280
182 256 305 317 318 321 330 340 344 341 339 341 341 339 336 331 328 324 320 318 316 313 311 309 305 302 300 297 294 292 289 287 284 282 282 280 278 282 277 275 274 273 271
225 284 307 315 319 320 320 321 336 334 334 336 335 333 332 329 326 322 320 318 314 310 307 304 301 299 296 294 293 291 288 287 285 281 280 279 276 277 273 274 270 269 273
239 287 312 316 318 307 309 319 328 327 329 331 331 328 328 324 322 321 319 316 313 308 306 303 301 299 297 295 294 291 289 287 282 278 278 280 281 284 279 274 269 266 263
275 305 318 320 317 310 313 317 322 324 328 328 328 326 326 323 323 323 321 318 313 308 305 304 302 299 297 295 294 291 288 284 280 278 279 274 280 281 275 277 277 272 265
283 306 313 319 311 310 313 316 321 322 326 325 326 325 325 325 323 322 322 322 320 314 308 305 304 302 299 296 294 291 288 282 278 278 272 280 280 278 276 273 271 270 268
284 300 310 312 311 312 316 318 320 322 324 323 324 324 326 322 322 322 327 327 326 322 316 310 308 306 303 300 300 301 297 292 287 282 283 286 281 280 281 278 273 269 267
279 293 304 310 315 321 319 320 320 322 323 322 324 324 325 324 325 328 329 331 328 327 325 317 312 309 307 304 302 301 303 299 294 289 290 282 279 281 281 280 279 280 277
276 289 302 311 316 321 322 320 319 317 318 320 326 326 327 325 326 329 331 328 326 326 324 320 316 311 308 304 299 296 294 294 291 289 289 281 278 279 276 275 274 273 269
273 287 300 311 312 320 319 319 317 316 319 323 327 327 326 325 329 331 331 324 321 319 318 315 312 308 305 300 297 292 288 288 286 287 285 283 283 278 278 275 274 271 272
271 284 299 306 310 317 317 317 314 314 318 323 327 325 323 322 324 329 328 325 321 319 317 313 310 306 306 300 299 294 293 287 285 287 287 285 284 283 281 280 279 277 276
272 284 295 301 309 312 315 314 312 312 317 321 324 320 318 318 318 323 320 319 318 316 315 311 307 305 303 299 294 294 290 287 285 285 285 285 285 286 286 284 281 279 279
272 282 291 298 303 310 312 310 308 311 316 319 321 315 315 315 315 318 317 316 313 310 309 307 304 303 299 295 292 290 288 285 285 286 284 285 285 283 281 279 279 280 279
273 280 287 294 302 308 310 308 306 309 312 316 315 313 313 314 315 315 316 315 313 309 306 303 299 296 294 293 291 286 283 282 282 282 284 283 284 284 282 280 278 276 277
272 280 286 292 302 306 307 305 305 307 311 313 311 312 313 313 313 314 316 315 312 312 310 306 300 295 291 287 286 285 283 281 281 281 282 283 279 276 280 280 281 282 282
273 278 284 291 300 303 303 303 304 307 309 310 311 312 312 312 313 313 314 313 311 311 313 313 311 304 296 291 289 288 288 287 283 282 282 281 281 281 276 278 280 281 281
270 276 282 289 296 300 301 301 302 305 307 309 310 310 312 313 313 313 313 311 309 309 309 311 311 310 306 300 297 297 297 294 294 294 292 289 288 286 285 283 281 282 283
268 275 281 290 295 299 299 298 300 303 304 306 308 310 312 312 313 314 313 310 309 309 308 309 310 310 310 307 305 306 303 304 305 300 299 297 293 289 288 287 287 286 284
268 274 282 290 295 296 295 297 300 302 304 305 307 309 309 309 310 310 310 309 309 308 307 307 307 306 307 307 307 306 301 299 299 297 296 297 296 294 292 292 292 290 289
270 276 283 289 292 290 291 294 296 298 301 304 307 307 306 305 305 305 305 306 306 307 307 307 307 305 305 305 307 309 307 305 302 302 298 297 295 293 292 290 289 289 290
275 280 283 286 286 287 289 290 293 296 299 301 302 305 306 305 304 303 303 304 305 307 306 305 305 303 304 304 307 307 306 304 303 298 297 295 292 291 291 293 293 291 290
278 280 282 282 283 284 286 289 291 294 297 299 301 302 303 303 304 304 304 303 304 304 303 302 302 301 300 301 302 304 303 302 302 300 298 293 294 295 291 289 287 289 290
279 280 281 280 281 282 284 286 290 294 297 299 301 302 302 302 301 300 300 299 299 298 298 298 299 298 298 300 300 302 302 302 301 300 297 293 291 289 290 292 289 289 288
Height
3178 3178 3178 3179 3178 3178 3177 3177 3176 3175 3175 3174 3173 3172 3172 3171 3171 3170 3170 3169 3168 3168 3167 3166 3166 3165 3164 3162 3161 3161 3160 3160 3159 3159 3158 3158 3157 3157 3157 3156 3156 3156 3156
3177 3178 3178 3178 3177 3177 3176 3176 3175 3175 3174 3174 3173 3172 3171 3171 3170 3169 3169 3168 3167 3166 3165 3164 3164 3162 3161 3160 3160 3159 3159 3159 3158 3157 3157 3156 3156 3156 3156 3156 3156 3155 3155
3176 3177 3177 3178 3177 3177 3176 3176 3175 3175 3174 3173 3173 3172 3171 3170 3170 3169 3168 3167 3166 3165 3164 3163 3162 3161 3160 3159 3158 3158 3158 3157 3157 3156 3155 3155 3155 3154 3154 3154 3154 3155 3155
3176 3177 3177 3177 3177 3177 3176 3176 3175 3175 3174 3173 3172 3172 3171 3170 3169 3169 3167 3166 3165 3164 3163 3161 3160 3159 3158 3157 3157 3156 3156 3155 3155 3154 3153 3153 3151 3153 3152 3152 3152 3153 3153
3176 3177 3177 3177 3176 3176 3176 3176 3175 3175 3174 3173 3172 3171 3170 3169 3168 3168 3167 3165 3164 3162 3161 3159 3158 3156 3155 3154 3153 3153 3152 3152 3152 3151 3150 3150 3149 3149 3150 3150 3150 3150 3151
3176 3176 3176 3176 3176 3176 3176 3175 3175 3174 3173 3173 3172 3171 3170 3168 3167 3166 3165 3163 3162 3160 3158 3156 3155 3153 3152 3151 3150 3149 3149 3148 3148 3148 3147 3145 3145 3146 3147 3146 3147 3148 3148
3176 3176 3176 3176 3175 3175 3175 3175 3174 3174 3173 3172 3171 3170 3168 3167 3165 3164 3163 3161 3159 3157 3155 3153 3152 3150 3149 3148 3147 3146 3146 3145 3145 3144 3143 3142 3142 3144 3143 3143 3143 3144 3145
3175 3176 3175 3175 3175 3175 3175 3174 3173 3173 3172 3171 3170 3168 3167 3165 3163 3162 3160 3158 3156 3154 3152 3150 3149 3147 3146 3145 3144 3143 3142 3142 3141 3140 3140 3139 3139 3140 3139 3139 3140 3140 3140
3175 3175 3175 3174 3174 3174 3174 3173 3173 3172 3171 3170 3168 3167 3165 3163 3161 3159 3156 3154 3152 3150 3148 3146 3145 3144 3143 3142 3141 3140 3139 3138 3137 3137 3135 3136 3137 3136 3136 3135 3136 3136 3136
3174 3174 3174 3173 3173 3173 3172 3172 3171 3171 3170 3168 3167 3165 3162 3160 3158 3156 3154 3151 3149 3147 3145 3143 3142 3141 3140 3139 3138 3137 3136 3135 3134 3133 3132 3133 3132 3132 3132 3132 3132 3132 3132
3173 3174 3173 3172 3172 3171 3171 3171 3170 3169 3168 3166 3164 3162 3159 3157 3155 3153 3150 3148 3146 3144 3142 3141 3139 3138 3137 3136 3135 3134 3133 3132 3131 3130 3130 3129 3129 3129 3128 3128 3128 3129 3129
3171 3172 3172 3171 3171 3170 3170 3169 3168 3167 3166 3164 3161 3159 3157 3155 3152 3150 3148 3146 3144 3142 3140 3138 3137 3135 3133 3132 3132 3131 3129 3128 3127 3127 3127 3125 3125 3125 3125 3125 3125 3125 3125
3170 3170 3170 3170 3170 3168 3167 3167 3165 3164 3163 3161 3159 3156 3155 3153 3150 3148 3146 3144 3143 3140 3138 3135 3134 3132 3131 3128 3127 3126 3125 3124 3123 3124 3123 3122 3122 3122 3121 3121 3121 3121 3121
3168 3168 3168 3168 3168 3166 3165 3164 3163 3161 3160 3158 3156 3154 3152 3151 3148 3145 3144 3141 3140 3138 3135 3133 3131 3129 3127 3126 3124 3122 3121 3120 3120 3120 3120 3119 3118 3118 3117 3117 3117 3117 3117
3166 3166 3166 3166 3166 3164 3163 3161 3160 3159 3157 3156 3153 3151 3149 3148 3145 3142 3141 3138 3137 3134 3133 3130 3128 3126 3124 3123 3121 3119 3118 3117 3117 3115 3116 3115 3115 3114 3114 3113 3113 3112 3112
3164 3164 3164 3164 3163 3162 3161 3159 3158 3156 3154 3152 3150 3148 3146 3144 3142 3139 3137 3134 3132 3130 3128 3127 3125 3123 3121 3119 3117 3116 3115 3113 3113 3111 3112 3111 3110 3110 3109 3108 3108 3108 3107
3161 3162 3161 3162 3161 3159 3158 3156 3155 3153 3151 3149 3147 3145 3143 3140 3138 3136 3133 3130 3127 3125 3123 3121 3120 3118 3117 3115 3113 3112 3110 3109 3108 3108 3106 3107 3106 3105 3105 3104 3103 3103 3102
3158 3158 3159 3159 3158 3156 3155 3153 3152 3150 3148 3146 3144 3142 3139 3137 3134 3132 3128 3126 3123 3121 3118 3116 3114 3113 3112 3110 3109 3107 3106 3105 3104 3103 3102 3101 3101 3101 3099 3099 3099 3098 3098
3155 3156 3156 3155 3154 3153 3152 3150 3148 3146 3144 3143 3140 3138 3136 3133 3130 3127 3125 3122 3119 3117 3114 3112 3110 3109 3107 3106 3104 3103 3102 3100 3099 3098 3097 3096 3095 3094 3095 3094 3093 3093 3092
3152 3152 3152 3152 3151 3150 3148 3146 3144 3142 3140 3138 3136 3134 3131 3129 3126 3123 3121 3118 3115 3113 3110 3108 3106 3104 3103 3102 3100 3099 3098 3096 3095 3094 3093 3092 3091 3090 3089 3088 3088 3087 3086
3148 3148 3148 3148 3147 3146 3144 3142 3140 3138 3137 3134 3132 3129 3127 3125 3122 3120 3117 3115 3112 3110 3107 3105 3103 3101 3099 3098 3097 3096 3094 3093 3091 3090 3089 3087 3087 3086 3084 3083 3083 3082 3082
3144 3145 3144 3144 3143 3141 3139 3137 3135 3134 3132 3130 3127 3126 3123 3121 3119 3116 3113 3110 3108 3105 3103 3101 3099 3097 3095 3094 3092 3091 3090 3090 3088 3086 3084 3083 3082 3081 3080 3079 3078 3077 3076
3140 3140 3140 3139 3138 3137 3135 3133 3132 3130 3127 3125 3123 3121 3119 3117 3114 3111 3108 3106 3103 3101 3098 3096 3094 3092 3091 3089 3087 3086 3084 3083 3082 3081 3080 3078 3077 3076 3074 3073 3073 3072 3070
3135 3136 3135 3134 3133 3132 3130 3129 3127 3126 3124 3121 3118 3116 3113 3111 3109 3107 3105 3101 3099 3096 3094 3092 3090 3088 3086 3085 3082 3081 3079 3077 3075 3076 3075 3072 3071 3070 3068 3067 3066 3065 3065
3131 3130 3130 3129 3128 3127 3126 3125 3123 3121 3119 3116 3114 3111 3108 3106 3104 3102 3100 3097 3095 3092 3090 3088 3085 3084 3081 3080 3077 3075 3074 3072 3069 3066 3067 3067 3064 3062 3062 3061 3060 3058 3057
3126 3125 3124 3123 3122 3122 3121 3119 3118 3116 3114 3111 3108 3105 3103 3101 3099 3097 3094 3092 3090 3087 3085 3083 3081 3078 3076 3074 3072 3069 3067 3066 3063 3059 3056 3058 3055 3057 3054 3053 3052 3051 3050